Погода в Жиганске

Хотите узнать прогноз погоды в Жиганске? Тогда Вам сюда: Погода в Жиганске

Поиск расширенной информации на нашем сайте:

Полезная информация:

Новости сайта



02.01.2020
Опубликован Долгосрочный прогноз погоды по городам России и ближнего зарубежья на январь 2020 года.
Карты: Прогноз на январь и февраль 2020 года, Сравнение прогнозируемой аномалии приземной температуры воздуха на январь 2020 года по разным моделям.




Погода в Жиганске - сегодня

Время (UTC), дата Ветер
(°,м/с) 
Видим.   Явления Облачность Т
(°С)
Тd
(°С)
f(%) Тe
(°С)
Pmin
(гПа)
dP
(гПа)
Po
(мм)
O2
(г/м3)
Тmin Tmax R s Состояние
почвы
18 29.11.20 140 (ЮВ) 20000 м    3/0 верхняя 
[Ci sp]
-29.5 -30.7 89 -30  1023.2  -0.5  758  344           
21 29.11.20 120 (ЮВ) 4000 м  слаб. снег  10/8 270 м верхняя 
[St|Cs]
-26.4 -27.6 89 -30  1022.8  -0.2  758  340           
00 30.11.20 170 (Ю) 20000 м  слаб. снег  10/6 600 м верхняя 
[Sc|Cs]
-25.7 -26.8 90 -29  1022.5  -0.3  757  339  -29.7    0.3  27  равномерный
сухой снег
100% 
03 30.11.20 160 (Ю) 2000 м  ливневой снег  10/8 100 м кучево-дожд., средняя 
[Cb cap|As op]
-25.3 -26.6 89 -30  1021.7  -0.8  757  338           
06 30.11.20 160 (Ю) 2000 м  снег{ливн. осадки}  10/5 300 м средняя 
[Sc|Ac As]
-24.8 -26 90 -30  1020.9  -0.7  756  337           
09 30.11.20 160 (Ю) 4000 м  слаб. снег  10/6 480 м средняя 
[St|Ac As]
-24.8 -26 90 -28  1020.3  -0.6  756  337           
12 30.11.20 170 (Ю) 2000 м  снег  10/6 360 м средняя 
[St|Ac As]
-23.1 -24.4 89 -29  1018.7  -1.5  755  334    -22.5     
15 30.11.20 160 (Ю) 20000 м  слаб. снег  10/6 360 м средняя 
[St|Ac As]
-22.2 -23.5 89 -28  1017.4  -1.2  754  332           
18 30.11.20 170 (Ю) 4{10}  1000 м  ливневой снег  10/8 120 м кучево-дожд., средняя 
[Cb cap|As op]
-22 -23.3 89 -28  1015.6  -1.8  752  331           
21 30.11.20 180 (Ю) 1000 м  ливневой снег  10/8 120 м кучево-дожд., средняя 
[Cb cap|As op]
-20.9 -22.1 90 -27  1013.9  -1.6  751  329           
00 01.12.20 170 (Ю) 1000 м  снег{ливн. осадки}  10/8 120 м средняя 
[Frnb|As op]
-20.2 -21.4 90 -26  1012.7  -1.2  750  328  -23.1    35  равномерный
сухой снег
100% 
03 01.12.20 170 (Ю) 1000 м  снег  10/8 150 м средняя 
[Frnb|As op]
-20.4 -21.6 90 -26  1011.4  -1.3  749  328           
06 01.12.20 170 (Ю) 2000 м  снег  10/10 150 м 
[Frnb|Ns]
-21.1 -22.3 90 -27  1010.4  -1.1  749  328           
09 01.12.20 160 (Ю) 5{11}  1000 м  снег  10/10 120 м 
[Frnb|Ns]
-21.7 -22.9 90 -28  1008.6  -1.7  747  329           
12 01.12.20 160 (Ю) 5-10{11}  2000 м  снег  10/10 120 м 
[Frnb|Ns]
-22.1 -23.4 89 -29  1006.6  -2  746  329    -19.4     
15 01.12.20 170 (Ю) 5-10{12}  2000 м  снег  10/10 150 м 
[Frnb|Ns]
-22.2 -23.5 89 -29  1005.6  -1  745  328           
21 01.12.20 160 (Ю) 3{10}  2000 м  ливневой снег  10/8 120 м кучево-дожд., средняя 
[Cb cap|As op]
-22.9 -24.2 89 -28  1007.5  0.8  746  330           
00 02.12.20 150 (ЮВ) 4{10}  4000 м  слаб. снег{ливн. осадки}  10/8 150 м средняя 
[Frnb|As op]
-22.9 -24.2 89 -29  1007.6  0.1  746  330  -22.9    38  равномерный
сухой снег
100% 
03 02.12.20 160 (Ю) 1000 м  снег  10/10 150 м 
[Frnb]
-23.2 -24.4 90 -31  1004.3  -3.4  744  329  -23         
06 02.12.20 170 (Ю) 6-13{16}  1000 м  снег  10/10 120 м 
[Frnb|Ac As]
-22.7 -23.9 90 -30  1000.4  -3.8  741  327           
09 02.12.20 170 (Ю) 5-11{13}  1000 м  снег  10/10 120 м 
[Frnb|Ac As]
-22.5 -23.7 90 -29  998.9  -1.4  740  327           
12 02.12.20 170 (Ю) 4{11}  1000 м  ливневой снег  10/10 150 м кучево-дожд. 
[Cb cap]
-21.9 -23.2 89 -28  999.3  0.4  740  326    -21.2     
15 02.12.20 160 (Ю) 3{11}  4000 м  слаб. снег{ливн. осадки}  10/8 120 м верхняя 
[St|Cs]
-21.6 -22.8 90 -26  1000.6  1.2  741  326           
18 02.12.20 180 (Ю) 4000 м  слаб. снег{ливн. осадки}  10/8 450 м средняя 
[Frnb|As op]
-20.7 -21.9 90 -24  1000.5  741  325           
21 02.12.20 170 (Ю) 2000 м  снег  10/8 120 м средняя 
[Frnb|As op]
-20.4 -21.6 90 -26  999.3  -1.1  740  324           
Время (UTC), дата Ветер
(°,м/с) 
Видим.   Явления Облачность Т
(°С)
Тd
(°С)
f(%) Тe
(°С)
Pmin
(гПа)
dP
(гПа)
Po
(мм)
O2
(г/м3)
Тmin Tmax R s Состояние
почвы

Для получения пояснительной информации подведите курсор к названию столбца.

ПОГОДА в Жиганске - архив

Всё, что Вы хотите узнать о погоде в Жиганске - удобно и подробно!

Выберите нужную дату (начиная с 1 января 2019* года) и нажмите кнопку "Найти".
Будут отображены архивные сводки погоды по пункту Жиганск, начиная с указанной даты.


Отображать данные в формате CSV (для использования в таблицах Excel)


Внимание! Наш архив погоды предназначен исключительно для личного некоммерческого использования в познавательных целях. Если Вам необходимы официальные справки о состоянии погоды (для производственных, юридических, коммерческих и т.п. целей), обращайтесь в органы Росгидромета.

*Примечание: данная дата относится к архиву по метеостанциям СССР (Россия, СНГ, Балтия).
Архив по метеостанциям Зарубежной Европы и Азии (кроме Китая) хранится 10 дней, по другим регионам земного шара (Китай, Африка, Америка, Австралия, Океания) - 1 день.

Жиганск - район местоположения метеостанции


Название, широта, долгота, высота метеостанции:
Жиганск 66.8°ш. 123.4°д. 92 м над ур. моря [Российская Федерация]

Дополнительная информация

В oтличие oт бoльшинства пoгoдных сайтoв мы публикуем пoдрoбную метеoинфoрмацию в детальнoм прoфессиoнальнoм фoрмате.

Характеристики температуры и влажнoсти вoздуха измеряются на высoте 2 м в тени вдали oт зданий и деревьев.
Скoрoсть ветра измеряется на высoте 10 м (на урoвне рoста челoвека скoрoсть ветра ниже в 1.5-2 раза). Если метеoстанция нахoдится в гoрoде или в лесу, тo скoрoсть ветра занижена на 2-4 м/с пo сравнению с oткрытым местoм. Скoрoсть ветра над акватoриями крупных рек и oзёр, а также на вершинах хoлмoв на 2-5 м/с выше, чем в oбычных услoвиях.
Атмoсфернoе давление в разных тoчках местнoсти мoжет значительнo oтличаться oт давления на метеoстанции, в зависимoсти oт услoвий рельефа (при пoдъёме на 10 м давление пoнижается примернo на 1 мм рт.ст.).